COSMOS 2251 DEB

Satellite information

Favourite Embed

Satellite Type and Status

DEBRISIN ORBIT

Key statistics

Satellite COSMOS 2251 DEB at a glance.

Uptime

11769

Days in orbit

Revolutions

≈ 14.6

Per day

Orbit

LEO

Low Earth Orbit

Inclination

74.1

Latest

Satellite identification and parameters

Extended collection of information and parameters for COSMOS 2251 DEB.

Object identification

Identified? True

Debris? True

Object name: COSMOS 2251 DEB

International designator: 1993-036CC

Object number (NORAD): 33835

Object ID (CCSDS): 33835

Country: COMMONWEALTH OF INDEPENDENT STATES (CIS)

Current information (Y/N): Y

RCS size: SMALL

Orbital parameters

Period: 98.574 minutes

Inclination: 74.0577 deg

SMA: 7068.638 km

Apoapsis: 732.046 km

Periapsis: 648.959 km

RAAN: 291.2876 deg

Eccentricy: 0.00587722

Argument of periapsis: 8.6151 deg

Mean anomaly: 53.7587 deg

Mean motion: 14.60828369 rev/day

Mean motion (dot): 0.00004892 rev/day2

B* drag term: 0.00098241096 1/REarth

Two-line elements (TLE)

Creation date: Sept. 4, 2025, 10:13 a.m.

Reference frame: TEME

Reference center: EARTH

Epoch: Sept. 4, 2025, 4:36 a.m. UTC

TLE line 0: 0 COSMOS 2251 DEB

TLE line 1: 1 33835U 93036CC 25247.19183946 .00004892 00000-0 98241-3 0 9994

TLE line 2: 2 33835 74.0577 291.2876 0058772 8.6151 53.7587 14.60828369873357

Live tracking on map

Real-time ground track for satellite COSMOS 2251 DEB.

In-orbit conjunctions

A list of the most updated potential collisions computed for object COSMOS 2251 DEB.

Target Orbit TCA Probability of collision Miss distance Type
COSMOS 2251 DEB LEO 2025-04-30 17:34:57 0.0001004172 114.0 (m) DEBRIS
CZ-6A DEB LEO 2024-11-30 11:18:56 0.0004355739 45.0 (m) DEBRIS
CZ-6A DEB SSO 2024-11-17 09:25:03 0.0001106466 162.0 (m) DEBRIS
CZ-6A DEB SSO 2024-11-15 00:31:13 0.001021256 265.0 (m) DEBRIS

Associated space launch

Military communications satellite. Destroyed in a collision with Iridium 33.

COSMOS 2251 DEB was lifted into orbit during the mission ‘Kosmos-3M | Strela-2M 51’, on board a Kosmos-3M space rocket.

The launch took place on June 16, 1993, 4:17 a.m. from 132/1 (132L).

For more information about the launch, click the button.

Launch to space Kosmos-3M | Strela-2M 51
Kosmos-3M | Strela-2M 51

Agency: N/A

Status: Launch Successful

Launch date: June 16, 1993, 4:17 a.m. UTC

Rocket: Kosmos-3M

Launch pad: 132/1 (132L)

Location: Plesetsk Cosmodrome, Russian Federation

...

Latest news about this satellite

There are no fresh news available about this satellite. Check back as we update our databases every day.


Newsletter sign-up

Weekly statistics, charts and insights to help you stay on top of the space industry.